Powrót do katalogu

FENGYUN 1C DEB

AktywnyPO
NORAD 30699·DEBRIS·🇨🇳 China

Wystrzelony May 10, 1999 z Taiyuan Satellite Launch Center

Loading…

Następne Przeloty (najbliższe 24 godziny)

TLE

ŚwieżeSource: Space-Track

Epoka: Sep 14, 2026, 09:40 UTC

1 30699U 99025ARH 26257.40342653  .00004400  00000-0  11263-2 0  9994
2 30699  99.3295  50.5262 0004005 147.8775 212.2661 14.50959272 16072

Śledź FENGYUN 1C DEB w czasie rzeczywistym z AllMySat

Download on the App Store